[[{"header":{"parameterUnit":"m.s-1","parameterCategory":1,"la1":30.2991,"la2":30.254,"lo1":-89.0895,"lo2":-89.0444,"dy":0.0017,"dx":0.0017,"nx":28,"ny":28,"refTime":"2024-10-06T09:00:00:Z","depth":0,"parameterNumber":2,"parameterNumberName":"U-component_of_WINDS"},"data":[0,0,0,0,0,0,0,0,0,0,0,0,0,0,0,0,0,0,0,0,0,0,0,0,0,0,0,0,0,0,0,0,0,0,0,0,0,0,0,0,0,0,0,0,0,0,0,0,0,0,0,0,0,0,0,0,0,0,-3.0696,-3.0697,0,-3.0803,-3.0804,-3.0805,-3.074,-3.0737,-3.0734,-3.0731,-3.0843,-3.0849,-3.0855,0,0,0,0,0,0,0,0,0,0,0,0,0,-3.0437,-3.0442,-3.0696,-3.0697,-3.0698,-3.0803,-3.0804,-3.0805,-3.0741,-3.0737,-3.0733,-3.073,-3.0842,-3.0848,-3.0856,0,0,0,0,0,0,0,0,0,0,0,0,0,-3.0548,-3.0444,-3.0696,-3.0679,-3.0678,-3.0802,-3.0804,-3.0806,-3.0742,-3.0737,-3.0732,-3.0728,-3.0839,-3.0848,-3.0857,-3.1004,0,0,-3.0883,-3.0887,0,0,0,0,0,0,0,0,-3.0541,-3.0557,-3.068,-3.068,-3.068,-3.0753,-3.0754,-3.0873,-3.0743,-3.0718,-3.0731,-3.0726,-3.0817,-3.0828,-3.0858,-3.1009,-3.1014,-3.0884,-3.089,-3.0893,-3.0896,0,0,0,0,0,0,0,-3.0534,-3.0552,-3.0738,-3.0682,-3.0682,-3.0666,-3.0677,-3.0776,-3.0792,-3.0719,-3.0715,-3.0728,-3.0817,-3.085,-3.086,-3.1016,-3.0884,-3.0892,-3.0897,-3.0901,-3.1294,-3.1299,0,0,0,0,0,0,-3.0527,-3.0546,-3.0735,-3.0741,-3.0598,-3.0675,-3.0686,-3.0734,-3.0791,-3.0795,-3.0732,-3.0725,-3.0837,-3.085,-3.0864,-3.1042,-3.0893,-3.0902,-3.0907,-3.1289,-3.1295,-3.1301,0,0,0,0,0,0,-3.0522,-3.0545,-3.073,-3.0643,-3.0665,-3.0684,-3.0739,-3.0739,-3.0772,-3.0801,-3.0804,-3.0763,-3.0834,-3.0852,-3.097,-3.1045,-3.0906,-3.0914,-3.1283,-3.1291,-3.1298,-3.1397,0,0,0,0,0,0,-3.0515,-3.0543,-3.0599,-3.0644,-3.067,-3.0834,-3.0743,-3.0744,-3.0787,-3.0779,-3.0831,-3.0835,-3.0832,-3.0957,-3.0979,-3.1054,-3.0921,-3.1276,-3.1287,-3.1296,-3.1388,-3.1408,-3.1425,0,0,0,0,0,-3.0506,-3.0623,-3.0602,-3.0625,-3.074,-3.0839,-3.0853,-3.0847,-3.0793,-3.085,-3.0868,-3.0833,-3.1032,-3.097,-3.0993,-3.1073,-3.1272,-3.1284,-3.1295,-3.1379,-3.1404,-3.1424,0,0,0,0,0,0,-3.0588,-3.0629,-3.0606,-3.0742,-3.0787,-3.0827,-3.0899,-3.0873,-3.0935,-3.0924,-3.0914,-3.0926,-3.105,-3.1072,-3.1002,-3.1219,-3.1144,-3.1161,-3.12,-3.1223,-3.1241,-3.1234,-3.0928,0,0,0,0,0,-3.0621,-3.0697,-3.0729,-3.0846,-3.0869,-3.088,-3.0923,-3.0914,-3.096,-3.098,-3.1006,-3.1054,-3.1127,-3.1176,-3.1245,-3.1389,-3.1401,-3.1456,-3.1474,-3.1489,-3.1505,-3.1584,-3.1609,-3.1339,-3.1339,-3.1339,0,0,-3.0692,-3.0724,-3.0773,-3.0863,-3.0897,-3.0976,-3.0897,-3.0984,-3.1044,-3.0993,-3.1107,-3.1128,-3.118,-3.1312,-3.1372,-3.1336,-3.1582,-3.1504,-3.1516,-3.1524,-3.1599,-3.1624,-3.1647,-3.1347,-3.1345,-3.1344,0,0,-3.0862,-3.0893,-3.0994,-3.1029,-3.1081,-3.1088,-3.1112,-3.1156,-3.1168,-3.1281,-3.1245,-3.1315,-3.1442,-3.1481,-3.1517,-3.17,-3.1671,-3.1723,-3.1821,-3.1898,-3.1919,-3.1938,-3.2005,-3.2029,-3.1738,-3.1738,-3.1738,0,-3.0944,-3.1062,-3.1049,-3.114,-3.1181,-3.1137,-3.124,-3.1275,-3.1347,-3.1377,-3.1334,-3.1492,-3.1524,-3.1665,-3.171,-3.174,-3.1768,-3.1718,-3.1917,-3.1936,-3.1953,-3.2017,-3.2042,-3.1744,-3.1743,-3.1743,-3.1742,0,-3.116,-3.1242,-3.1317,-3.1388,-3.1437,-3.1533,-3.1536,-3.1587,-3.1573,-3.1584,-3.17,-3.1737,-3.1813,-3.1845,-3.1832,-3.1985,-3.1961,-3.1918,-3.1843,-3.1986,-3.2045,-3.207,-3.1753,-3.1751,-3.1749,-3.1747,0,0,-3.1388,-3.1448,-3.1476,-3.1508,-3.1561,-3.1625,-3.1719,-3.1792,-3.1837,-3.1887,-3.1967,-3.2074,-3.2034,-3.2076,-3.2067,-3.2134,-3.2279,-3.2083,-3.2084,-3.212,-3.2451,-3.2484,-3.2513,-3.2258,-3.2263,-3.2266,-3.2447,0,-3.1562,-3.1726,-3.1717,-3.1871,-3.1947,-3.1906,-3.1987,-3.203,-3.2042,-3.2109,-3.2122,-3.2199,-3.214,-3.2165,-3.223,-3.2248,-3.2346,-3.2234,-3.2334,-3.2337,-3.2324,-3.2544,-3.258,-3.2748,-3.247,-3.2474,-3.2477,0,-3.1788,-3.1846,-3.2007,-3.2049,-3.2081,-3.2155,-3.2221,-3.2285,-3.2332,-3.2336,-3.2381,-3.2361,-3.2457,-3.2377,-3.251,-3.2434,-3.2474,-3.2489,-3.2495,-3.2506,-3.2418,-3.2563,-3.2802,-3.2828,-3.2513,-3.251,-3.2508,0,-3.194,-3.2058,-3.217,-3.2198,-3.2249,-3.2302,-3.2326,-3.2368,-3.2412,-3.247,-3.2499,-3.2567,-3.2606,-3.2659,-3.2659,-3.26,-3.2793,-3.2713,-3.2801,-3.2801,-3.2846,-3.2843,-3.3097,-3.2868,-3.2867,-3.2867,-3.2866,0,-3.2138,-3.2239,-3.2239,-3.2308,-3.242,-3.2408,-3.2519,-3.2538,-3.2575,-3.2648,-3.2615,-3.2684,-3.2678,-3.2747,-3.2747,-3.2858,-3.2874,-3.2882,-3.2881,-3.2886,-3.2886,-3.2914,-3.2903,-3.2873,-3.2872,-3.2871,-3.2869,0,-3.2328,-3.2331,-3.2451,-3.2489,-3.2501,-3.2582,-3.2615,-3.2681,-3.2689,-3.2781,-3.2802,-3.2816,-3.2897,-3.29,-3.2993,-3.2992,-3.3127,-3.3112,-3.3112,-3.311,-3.3198,-3.3191,-3.3481,-3.3519,-3.3263,-3.3265,-3.3267,0,-3.2455,-3.2531,-3.2577,-3.2623,-3.2649,-3.2724,-3.2768,-3.276,-3.2808,-3.2866,-3.2926,-3.3002,-3.3064,-3.3194,-3.3213,-3.3284,-3.3271,-3.3368,-3.3282,-3.3285,-3.3275,-3.3272,-3.328,-3.3386,-3.3389,-3.3391,-3.3393,0,-3.268,-3.2678,-3.2743,-3.281,-3.2864,-3.2916,-3.2965,-3.3004,-3.3001,-3.3057,-3.3138,-3.3185,-3.3279,-3.3356,-3.3425,-3.345,-3.3422,-3.3419,-3.3444,-3.3451,-3.3448,-3.3453,-3.316,-3.3413,-3.3411,-3.341,-3.3409,-3.3408,-3.2844,-3.291,-3.2953,-3.3027,-3.3062,-3.3107,-3.3171,-3.3187,-3.3254,-3.333,-3.332,-3.3411,-3.3455,-3.3544,-3.3575,-3.3646,-3.3613,-3.3648,-3.3657,-3.3666,-3.3677,-3.3435,-3.3658,-3.3657,-3.3657,-3.3656,-3.3656,0,-3.307,-3.3094,-3.3162,-3.3231,-3.3289,-3.3255,-3.3306,-3.3358,-3.3438,-3.3481,-3.3541,-3.3635,-3.3709,-3.3734,-3.3806,-3.3858,-3.3847,-3.3878,-3.3875,-3.3882,-3.3701,-3.3674,-3.3886,-3.3886,-3.3886,-3.3885,-3.3885,-3.3885,-3.3194,-3.3305,-3.3307,-3.3435,-3.3459,-3.3547,-3.3579,-3.3622,-3.3656,-3.3762,-3.3823,-3.3837,-3.3873,-3.3948,-3.4015,-3.402,-3.4049,-3.4086,-3.4086,-3.3917,-3.3894,-3.3872,-3.3847,-3.4091,-3.4092,-3.4261,-3.4262,-3.4263]},{"header":{"parameterUnit":"m.s-1","parameterCategory":1,"la1":30.2991,"la2":30.254,"lo1":-89.0895,"lo2":-89.0444,"dy":0.0017,"dx":0.0017,"nx":28,"ny":28,"refTime":"2024-10-06T09:00:00:Z","depth":0,"parameterNumber":3,"parameterNumberName":"V-component_of_WINDS"},"data":[0,0,0,0,0,0,0,0,0,0,0,0,0,0,0,0,0,0,0,0,0,0,0,0,0,0,0,0,0,0,0,0,0,0,0,0,0,0,0,0,0,0,0,0,0,0,0,0,0,0,0,0,0,0,0,0,0,0,-5.1343,-5.1343,0,-5.1372,-5.1372,-5.1372,-5.1292,-5.1289,-5.1287,-5.1284,-5.1312,-5.1315,-5.1318,0,0,0,0,0,0,0,0,0,0,0,0,0,-5.1214,-5.1217,-5.1343,-5.1343,-5.1343,-5.1372,-5.1372,-5.1372,-5.1292,-5.1289,-5.1286,-5.1283,-5.1311,-5.1314,-5.1318,0,0,0,0,0,0,0,0,0,0,0,0,0,-5.1259,-5.1218,-5.1343,-5.1307,-5.1304,-5.1372,-5.1372,-5.1373,-5.1293,-5.1289,-5.1285,-5.1282,-5.131,-5.1314,-5.1319,-5.1422,0,0,-5.1333,-5.1335,0,0,0,0,0,0,0,0,-5.1257,-5.1264,-5.1312,-5.1309,-5.1306,-5.1324,-5.1337,-5.1389,-5.1294,-5.1297,-5.1284,-5.128,-5.1319,-5.1322,-5.1336,-5.1423,-5.1424,-5.1333,-5.1336,-5.1338,-5.1339,0,0,0,0,0,0,0,-5.1254,-5.1262,-5.1354,-5.1312,-5.1309,-5.1288,-5.129,-5.1346,-5.1328,-5.1296,-5.1291,-5.1295,-5.1317,-5.1332,-5.1336,-5.1424,-5.1333,-5.1337,-5.134,-5.1342,-5.1595,-5.1599,0,0,0,0,0,0,-5.1256,-5.126,-5.1353,-5.1355,-5.1272,-5.1294,-5.1296,-5.1322,-5.1328,-5.1325,-5.1298,-5.1291,-5.1326,-5.1331,-5.1337,-5.1456,-5.1338,-5.1342,-5.1345,-5.1591,-5.1596,-5.1601,0,0,0,0,0,0,-5.1253,-5.1265,-5.1352,-5.1306,-5.1316,-5.13,-5.133,-5.1325,-5.134,-5.1329,-5.1325,-5.1318,-5.1323,-5.133,-5.1401,-5.1456,-5.1344,-5.1348,-5.1587,-5.1593,-5.1598,-5.1698,0,0,0,0,0,0,-5.125,-5.1264,-5.1304,-5.1308,-5.1318,-5.1417,-5.1333,-5.1328,-5.1348,-5.1339,-5.1346,-5.1344,-5.1321,-5.1394,-5.1405,-5.1461,-5.1352,-5.1582,-5.1589,-5.1596,-5.1689,-5.1706,-5.1721,0,0,0,0,0,-5.1246,-5.1331,-5.1307,-5.1318,-5.1368,-5.142,-5.1426,-5.1399,-5.1353,-5.1392,-5.1385,-5.1343,-5.1449,-5.1402,-5.1414,-5.1471,-5.1578,-5.1587,-5.1596,-5.1682,-5.1703,-5.172,0,0,0,0,0,0,-5.1334,-5.1331,-5.1304,-5.1393,-5.1408,-5.1407,-5.1455,-5.1422,-5.1449,-5.144,-5.1404,-5.1406,-5.1483,-5.1484,-5.1433,-5.157,-5.1505,-5.1517,-5.1567,-5.1587,-5.1602,-5.16,-5.1356,0,0,0,0,0,-5.1364,-5.1408,-5.1402,-5.1481,-5.149,-5.1472,-5.1493,-5.1471,-5.1484,-5.149,-5.1488,-5.1502,-5.1538,-5.1562,-5.1595,-5.1689,-5.1689,-5.1734,-5.175,-5.1763,-5.1773,-5.1822,-5.1842,-5.163,-5.163,-5.163,0,0,-5.1426,-5.143,-5.1459,-5.1499,-5.1508,-5.1552,-5.1477,-5.1528,-5.1561,-5.1497,-5.1564,-5.1563,-5.1576,-5.1659,-5.1695,-5.1662,-5.1832,-5.1775,-5.1785,-5.1788,-5.1833,-5.1853,-5.1871,-5.1636,-5.1635,-5.1634,0,0,-5.1562,-5.157,-5.1636,-5.1646,-5.166,-5.1647,-5.1663,-5.1667,-5.1664,-5.1731,-5.1684,-5.1721,-5.1785,-5.1795,-5.1809,-5.1948,-5.191,-5.196,-5.2042,-5.209,-5.2106,-5.2121,-5.2169,-5.2187,-5.197,-5.197,-5.1971,0,-5.1637,-5.1704,-5.1674,-5.1728,-5.1746,-5.1691,-5.1757,-5.1768,-5.1792,-5.1805,-5.1768,-5.1846,-5.185,-5.1934,-5.1968,-5.1982,-5.1997,-5.1959,-5.2106,-5.2121,-5.2134,-5.218,-5.2198,-5.1976,-5.1976,-5.1975,-5.1975,0,-5.1794,-5.1841,-5.1893,-5.1918,-5.1942,-5.2002,-5.1979,-5.2007,-5.1983,-5.1973,-5.2041,-5.2045,-5.2077,-5.2095,-5.2071,-5.2175,-5.2154,-5.2113,-5.2046,-5.216,-5.2203,-5.222,-5.1985,-5.1983,-5.1981,-5.1979,0,0,-5.1987,-5.1994,-5.2014,-5.2024,-5.2035,-5.207,-5.2127,-5.2158,-5.2182,-5.22,-5.2246,-5.23,-5.2262,-5.2277,-5.2254,-5.2297,-5.2405,-5.2249,-5.2249,-5.2277,-5.2518,-5.2549,-5.257,-5.238,-5.2383,-5.2386,-5.2516,0,-5.212,-5.2218,-5.2192,-5.2289,-5.2331,-5.2279,-5.2328,-5.234,-5.2333,-5.2366,-5.2357,-5.2396,-5.2343,-5.2352,-5.2391,-5.2384,-5.2453,-5.2374,-5.2421,-5.2423,-5.2419,-5.2592,-5.2625,-5.2748,-5.2533,-5.2536,-5.2538,0,-5.2288,-5.2313,-5.2415,-5.2418,-5.2435,-5.248,-5.2506,-5.2539,-5.2551,-5.2542,-5.256,-5.2528,-5.2582,-5.2516,-5.259,-5.2537,-5.2554,-5.2554,-5.2558,-5.256,-5.2487,-5.2598,-5.2786,-5.2805,-5.2564,-5.2562,-5.256,0,-5.2417,-5.2476,-5.2544,-5.2555,-5.256,-5.2593,-5.2597,-5.2604,-5.2625,-5.2648,-5.266,-5.2689,-5.2705,-5.2727,-5.2703,-5.2658,-5.278,-5.2713,-5.2774,-5.2775,-5.2801,-5.28,-5.2994,-5.2815,-5.2814,-5.2814,-5.2814,0,-5.2568,-5.2632,-5.2602,-5.2644,-5.2713,-5.2682,-5.2751,-5.2749,-5.2756,-5.2796,-5.2753,-5.279,-5.2757,-5.2792,-5.2774,-5.2837,-5.2844,-5.2838,-5.2832,-5.2842,-5.2842,-5.2852,-5.2843,-5.2819,-5.2818,-5.2817,-5.2816,0,-5.2724,-5.2706,-5.2777,-5.2776,-5.2778,-5.2829,-5.2828,-5.2866,-5.2855,-5.2905,-5.2915,-5.2899,-5.2937,-5.2916,-5.2955,-5.2943,-5.3024,-5.3007,-5.3021,-5.3016,-5.3078,-5.3072,-5.3284,-5.331,-5.3115,-5.3117,-5.3119,0,-5.2821,-5.2868,-5.2873,-5.2897,-5.2904,-5.2942,-5.2963,-5.2934,-5.2957,-5.2973,-5.3009,-5.3043,-5.3069,-5.3133,-5.3123,-5.3153,-5.3136,-5.3208,-5.314,-5.3147,-5.3135,-5.3132,-5.3136,-5.3222,-5.3224,-5.3226,-5.3227,0,-5.2994,-5.2983,-5.3015,-5.3043,-5.3069,-5.309,-5.3107,-5.3129,-5.31,-5.3128,-5.3167,-5.3187,-5.3227,-5.3261,-5.3286,-5.3289,-5.3253,-5.3249,-5.3264,-5.3274,-5.3279,-5.3276,-5.3057,-5.3244,-5.3242,-5.3241,-5.324,-5.324,-5.3122,-5.3162,-5.3171,-5.3208,-5.3218,-5.3235,-5.327,-5.3264,-5.3296,-5.3326,-5.3307,-5.3352,-5.3361,-5.3391,-5.3399,-5.3433,-5.3404,-5.3426,-5.3432,-5.3438,-5.3446,-5.3275,-5.3437,-5.3437,-5.3436,-5.3436,-5.3436,0,-5.3293,-5.3296,-5.333,-5.3355,-5.3384,-5.3348,-5.3365,-5.3391,-5.3431,-5.3443,-5.347,-5.3514,-5.3547,-5.354,-5.3569,-5.3598,-5.3582,-5.3607,-5.3604,-5.3605,-5.3471,-5.3454,-5.3619,-5.3619,-5.3619,-5.3619,-5.3619,-5.3619,-5.3385,-5.3449,-5.3439,-5.3508,-5.351,-5.3555,-5.3567,-5.3582,-5.3591,-5.3642,-5.367,-5.3665,-5.3669,-5.3699,-5.3727,-5.3724,-5.3736,-5.3767,-5.3758,-5.3633,-5.3614,-5.3597,-5.3581,-5.377,-5.377,-5.3889,-5.389,-5.389]}]]